[[{"header":{"parameterUnit":"m.s-1","parameterCategory":1,"la1":30.2991,"la2":30.254,"lo1":-89.0895,"lo2":-89.0444,"dy":0.0017,"dx":0.0017,"nx":28,"ny":28,"refTime":"2024-08-13T03:00:00:Z","depth":0,"parameterNumber":2,"parameterNumberName":"U-component_of_WINDS"},"data":[0,0,0,0,0,0,0,0,0,0,0,0,0,0,0,0,0,0,0,0,0,0,0,0,0,0,0,0,0,0,0,0,0,0,0,0,0,0,0,0,0,0,0,0,0,0,0,0,0,0,0,0,0,0,0,0,0,0,1.473,1.473,0,1.4707,1.4707,1.4707,1.4652,1.4651,1.465,1.4649,1.4627,1.4627,1.4628,0,0,0,0,0,0,0,0,0,0,0,0,0,1.473,1.473,1.473,1.473,1.473,1.4707,1.4707,1.4707,1.4652,1.4651,1.4649,1.4648,1.4627,1.4627,1.4628,0,0,0,0,0,0,0,0,0,0,0,0,0,1.4721,1.473,1.473,1.47,1.4697,1.4707,1.4707,1.4706,1.4652,1.4651,1.4649,1.4647,1.4626,1.4627,1.4628,1.4667,0,0,1.463,1.463,0,0,0,0,0,0,0,0,1.4721,1.4721,1.4704,1.4702,1.4698,1.4681,1.4699,1.4693,1.4653,1.4669,1.4649,1.4647,1.4646,1.4645,1.4645,1.4666,1.4665,1.463,1.4631,1.4631,1.4631,0,0,0,0,0,0,0,1.4722,1.4722,1.4721,1.4704,1.4701,1.4688,1.4685,1.4697,1.4668,1.4668,1.4664,1.4662,1.4644,1.4644,1.4644,1.4664,1.463,1.4631,1.4631,1.4631,1.4719,1.4721,0,0,0,0,0,0,1.4727,1.4723,1.4722,1.472,1.4706,1.469,1.4686,1.4688,1.4667,1.4663,1.4663,1.4659,1.4644,1.4643,1.4643,1.4689,1.4631,1.4632,1.4632,1.4717,1.4719,1.4721,0,0,0,0,0,0,1.4727,1.4727,1.4723,1.472,1.4719,1.4691,1.4694,1.4689,1.4688,1.4664,1.4659,1.4668,1.4642,1.4642,1.4662,1.4687,1.4632,1.4633,1.4715,1.4718,1.472,1.478,0,0,0,0,0,0,1.4727,1.4728,1.4741,1.4721,1.4719,1.4741,1.4696,1.4689,1.469,1.4684,1.4667,1.4663,1.4641,1.4661,1.4662,1.4687,1.4633,1.4712,1.4716,1.4719,1.4775,1.4784,1.4792,0,0,0,0,0,1.4727,1.4759,1.4742,1.4742,1.4735,1.4743,1.4742,1.4715,1.4692,1.4706,1.4691,1.4663,1.4684,1.4663,1.4665,1.469,1.4711,1.4715,1.4719,1.4772,1.4782,1.4792,0,0,0,0,0,0,1.4783,1.4755,1.4737,1.4762,1.4755,1.4733,1.475,1.4727,1.4727,1.4722,1.469,1.4686,1.4711,1.4702,1.468,1.4728,1.4693,1.4698,1.4733,1.4743,1.4751,1.4753,1.4634,0,0,0,0,0,1.4798,1.4805,1.4781,1.4806,1.4804,1.4778,1.478,1.476,1.4752,1.4749,1.4735,1.4728,1.4733,1.4737,1.474,1.4774,1.477,1.4792,1.48,1.4807,1.4812,1.4831,1.4841,1.4735,1.4735,1.4735,0,0,1.4829,1.4815,1.4822,1.4817,1.4809,1.4819,1.4776,1.4787,1.4794,1.475,1.4769,1.4759,1.4749,1.4777,1.4788,1.477,1.484,1.4812,1.4818,1.4819,1.4836,1.4846,1.4855,1.4738,1.4737,1.4737,0,0,1.4892,1.4881,1.4902,1.4895,1.4884,1.4867,1.4872,1.4854,1.4846,1.4863,1.4831,1.484,1.4849,1.4844,1.4843,1.4906,1.4882,1.4908,1.4952,1.4971,1.4979,1.4986,1.5011,1.502,1.4913,1.4913,1.4913,0,1.4933,1.4945,1.4915,1.493,1.4929,1.489,1.4912,1.4907,1.4898,1.4899,1.4879,1.4891,1.4882,1.4908,1.4924,1.4924,1.493,1.491,1.498,1.4987,1.4993,1.5016,1.5025,1.4916,1.4916,1.4916,1.4915,0,1.4996,1.5006,1.5024,1.5016,1.5018,1.5036,1.501,1.5016,1.4997,1.4982,1.5002,1.499,1.4991,1.4996,1.4977,1.5021,1.501,1.4986,1.495,1.5007,1.5029,1.5037,1.4921,1.492,1.4919,1.4918,0,0,1.5093,1.5069,1.5077,1.5074,1.5059,1.5067,1.5084,1.5084,1.5091,1.5086,1.5101,1.511,1.5088,1.5087,1.5067,1.5084,1.5137,1.5057,1.5057,1.5074,1.5187,1.5207,1.5217,1.5121,1.5122,1.5124,1.5189,0,1.5153,1.5179,1.5155,1.5187,1.5196,1.516,1.5175,1.5169,1.5157,1.5164,1.515,1.5158,1.5127,1.5126,1.5141,1.5128,1.516,1.5122,1.5136,1.5137,1.514,1.5228,1.5248,1.531,1.5197,1.5198,1.5199,0,1.5226,1.5225,1.5259,1.5244,1.5247,1.5261,1.5261,1.5268,1.5261,1.5251,1.525,1.5227,1.5244,1.5209,1.5234,1.5209,1.5213,1.5207,1.5209,1.521,1.5172,1.5233,1.5329,1.5339,1.5211,1.521,1.5209,0,1.5295,1.5302,1.5324,1.5322,1.5305,1.5316,1.531,1.5301,1.5304,1.5304,1.5306,1.5308,1.531,1.5313,1.5292,1.5268,1.532,1.5283,1.5314,1.5314,1.5327,1.5326,1.5426,1.5327,1.5327,1.5327,1.5327,0,1.5366,1.5388,1.5355,1.5368,1.5393,1.5365,1.539,1.538,1.5373,1.5385,1.5354,1.5366,1.5336,1.5346,1.5329,1.5353,1.5354,1.5347,1.5343,1.5351,1.5352,1.5354,1.535,1.5329,1.5329,1.5328,1.5328,0,1.5447,1.5426,1.5447,1.543,1.5426,1.5445,1.5431,1.5443,1.5429,1.5445,1.5447,1.5425,1.5435,1.5414,1.542,1.5409,1.5444,1.5432,1.5446,1.5443,1.5476,1.5474,1.5582,1.5596,1.5486,1.5487,1.5488,0,1.5494,1.5511,1.5495,1.5501,1.5496,1.5506,1.5509,1.5482,1.5487,1.5481,1.5495,1.5502,1.5506,1.5524,1.5509,1.5515,1.5504,1.5541,1.5505,1.5513,1.5507,1.5507,1.5509,1.5549,1.5551,1.5552,1.5553,0,1.5581,1.557,1.5575,1.5577,1.5582,1.5582,1.5581,1.5587,1.5559,1.5566,1.5576,1.5579,1.5587,1.5595,1.5598,1.5592,1.5569,1.5564,1.5572,1.5581,1.559,1.5587,1.5469,1.5562,1.5561,1.556,1.556,1.556,1.5647,1.5661,1.5653,1.5661,1.5657,1.5657,1.5668,1.5656,1.5663,1.5667,1.5651,1.5665,1.5659,1.566,1.5657,1.5669,1.5652,1.5663,1.5666,1.5669,1.5676,1.5587,1.5669,1.5669,1.5668,1.5668,1.5668,0,1.5734,1.5727,1.5734,1.5734,1.574,1.5717,1.5714,1.5722,1.5734,1.573,1.5736,1.5748,1.5756,1.5743,1.5749,1.5761,1.5751,1.5764,1.5764,1.5763,1.5689,1.5683,1.5773,1.5773,1.5772,1.5772,1.5772,1.5772,1.578,1.5803,1.5791,1.5813,1.5806,1.5819,1.582,1.582,1.5817,1.5832,1.5839,1.583,1.5823,1.5829,1.5837,1.5833,1.5837,1.5855,1.5847,1.5778,1.5768,1.5758,1.5752,1.5855,1.5856,1.5921,1.5921,1.5922]},{"header":{"parameterUnit":"m.s-1","parameterCategory":1,"la1":30.2991,"la2":30.254,"lo1":-89.0895,"lo2":-89.0444,"dy":0.0017,"dx":0.0017,"nx":28,"ny":28,"refTime":"2024-08-13T03:00:00:Z","depth":0,"parameterNumber":3,"parameterNumberName":"V-component_of_WINDS"},"data":[0,0,0,0,0,0,0,0,0,0,0,0,0,0,0,0,0,0,0,0,0,0,0,0,0,0,0,0,0,0,0,0,0,0,0,0,0,0,0,0,0,0,0,0,0,0,0,0,0,0,0,0,0,0,0,0,0,0,-2.9346,-2.9347,0,-2.9426,-2.9427,-2.9428,-2.9453,-2.9453,-2.9452,-2.9452,-2.9532,-2.9534,-2.9536,0,0,0,0,0,0,0,0,0,0,0,0,0,-2.9216,-2.9219,-2.9346,-2.9347,-2.9348,-2.9426,-2.9427,-2.9428,-2.9453,-2.9453,-2.9452,-2.9452,-2.9531,-2.9534,-2.9537,0,0,0,0,0,0,0,0,0,0,0,0,0,-2.9282,-2.9219,-2.9346,-2.937,-2.9373,-2.9426,-2.9427,-2.9428,-2.9453,-2.9453,-2.9452,-2.9452,-2.953,-2.9533,-2.9537,-2.9571,0,0,-2.9548,-2.955,0,0,0,0,0,0,0,0,-2.9278,-2.9287,-2.9366,-2.9369,-2.9372,-2.9429,-2.941,-2.9476,-2.9453,-2.9423,-2.9452,-2.9451,-2.9498,-2.9504,-2.952,-2.9574,-2.9578,-2.9549,-2.9551,-2.9552,-2.9554,0,0,0,0,0,0,0,-2.9274,-2.9283,-2.9378,-2.9367,-2.9371,-2.9377,-2.9386,-2.9423,-2.9462,-2.9425,-2.9428,-2.9437,-2.9499,-2.9517,-2.9522,-2.9579,-2.9549,-2.9552,-2.9554,-2.9556,-2.9667,-2.9668,0,0,0,0,0,0,-2.9265,-2.9279,-2.9375,-2.938,-2.9323,-2.938,-2.939,-2.9411,-2.9462,-2.9469,-2.9437,-2.9438,-2.9511,-2.9518,-2.9525,-2.9569,-2.9552,-2.9556,-2.9558,-2.9666,-2.9667,-2.9668,0,0,0,0,0,0,-2.9262,-2.9273,-2.9372,-2.9331,-2.9344,-2.9383,-2.9407,-2.9413,-2.943,-2.9471,-2.9478,-2.9447,-2.951,-2.952,-2.956,-2.9572,-2.9558,-2.9561,-2.9665,-2.9666,-2.9668,-2.9657,0,0,0,0,0,0,-2.9258,-2.9272,-2.9285,-2.9331,-2.9346,-2.9405,-2.9408,-2.9415,-2.9437,-2.9438,-2.9482,-2.9489,-2.9511,-2.9554,-2.9563,-2.9577,-2.9564,-2.9664,-2.9666,-2.9667,-2.9656,-2.9657,-2.9658,0,0,0,0,0,-2.9254,-2.9278,-2.9286,-2.9297,-2.9363,-2.9406,-2.9415,-2.944,-2.9438,-2.9451,-2.9478,-2.9488,-2.9569,-2.9558,-2.9569,-2.9584,-2.9664,-2.9665,-2.9667,-2.9656,-2.9657,-2.9658,0,0,0,0,0,0,-2.9232,-2.9284,-2.9293,-2.9333,-2.9365,-2.941,-2.9428,-2.944,-2.9472,-2.9472,-2.9501,-2.9511,-2.9549,-2.957,-2.9557,-2.962,-2.9617,-2.9621,-2.9605,-2.9606,-2.9608,-2.9602,-2.9567,0,0,0,0,0,-2.9232,-2.9263,-2.9307,-2.9338,-2.9354,-2.9388,-2.9408,-2.9425,-2.9458,-2.9472,-2.9501,-2.9533,-2.9567,-2.9587,-2.962,-2.9659,-2.967,-2.9675,-2.9676,-2.9677,-2.968,-2.9704,-2.9708,-2.9673,-2.9673,-2.9673,0,0,-2.9232,-2.9264,-2.9282,-2.9334,-2.9361,-2.9393,-2.9399,-2.9432,-2.9456,-2.9476,-2.9517,-2.9539,-2.9577,-2.9617,-2.9637,-2.9636,-2.9692,-2.9679,-2.9679,-2.9682,-2.9707,-2.971,-2.9713,-2.9675,-2.9674,-2.9674,0,0,-2.9248,-2.9275,-2.9305,-2.9332,-2.9373,-2.9396,-2.9404,-2.9448,-2.9464,-2.9505,-2.9522,-2.955,-2.9606,-2.9634,-2.9655,-2.9684,-2.9695,-2.9694,-2.97,-2.9723,-2.9726,-2.9728,-2.974,-2.9744,-2.9697,-2.9697,-2.9697,0,-2.9243,-2.9291,-2.9319,-2.9352,-2.9375,-2.9396,-2.9427,-2.9452,-2.9501,-2.9517,-2.9516,-2.9588,-2.9615,-2.9663,-2.9671,-2.9686,-2.9696,-2.9689,-2.9723,-2.9726,-2.9729,-2.9741,-2.9745,-2.9696,-2.9696,-2.9696,-2.9696,0,-2.9283,-2.9317,-2.9336,-2.9385,-2.941,-2.9442,-2.9474,-2.9496,-2.9512,-2.9535,-2.9577,-2.9611,-2.9652,-2.9664,-2.9678,-2.9715,-2.9714,-2.9717,-2.9715,-2.9731,-2.9743,-2.9747,-2.9696,-2.9696,-2.9696,-2.9696,0,0,-2.9287,-2.9352,-2.9359,-2.9382,-2.943,-2.9456,-2.9489,-2.953,-2.955,-2.9583,-2.9612,-2.9661,-2.9665,-2.9689,-2.9707,-2.9728,-2.9751,-2.973,-2.9731,-2.9733,-2.9795,-2.9792,-2.9797,-2.9758,-2.9759,-2.976,-2.9792,0,-2.931,-2.9371,-2.9398,-2.9446,-2.9479,-2.9501,-2.953,-2.9563,-2.9586,-2.9617,-2.9642,-2.9677,-2.968,-2.9695,-2.9716,-2.9743,-2.9764,-2.9741,-2.9786,-2.9788,-2.9777,-2.9803,-2.9799,-2.9828,-2.9797,-2.9797,-2.9798,0,-2.9345,-2.9381,-2.9433,-2.9479,-2.9494,-2.9519,-2.956,-2.9589,-2.9627,-2.9643,-2.9671,-2.9689,-2.9725,-2.972,-2.9772,-2.9756,-2.9776,-2.9793,-2.9795,-2.98,-2.9794,-2.981,-2.9837,-2.9842,-2.9805,-2.9805,-2.9804,0,-2.9344,-2.9405,-2.9445,-2.9463,-2.9518,-2.9536,-2.9559,-2.9597,-2.9621,-2.9656,-2.9672,-2.9711,-2.9733,-2.9763,-2.9791,-2.9785,-2.984,-2.9837,-2.9855,-2.9854,-2.9865,-2.9864,-2.9897,-2.9877,-2.9877,-2.9877,-2.9877,0,-2.9367,-2.9399,-2.9445,-2.9469,-2.9506,-2.9537,-2.9572,-2.9597,-2.9631,-2.9661,-2.9682,-2.971,-2.9744,-2.9777,-2.9799,-2.9839,-2.9848,-2.9862,-2.9868,-2.9861,-2.9859,-2.9875,-2.9874,-2.9878,-2.9878,-2.9877,-2.9877,0,-2.9372,-2.9404,-2.9449,-2.9498,-2.9511,-2.9536,-2.9578,-2.9603,-2.9628,-2.9666,-2.9676,-2.9716,-2.9755,-2.9786,-2.9837,-2.9852,-2.9895,-2.99,-2.9882,-2.9885,-2.9902,-2.99,-2.9946,-2.9955,-2.9927,-2.9928,-2.9928,0,-2.9385,-2.941,-2.9462,-2.9485,-2.9508,-2.9544,-2.9569,-2.96,-2.9625,-2.9672,-2.9692,-2.9733,-2.9768,-2.983,-2.9863,-2.9903,-2.991,-2.9924,-2.9916,-2.9909,-2.9912,-2.9911,-2.9914,-2.9925,-2.9925,-2.9925,-2.9925,0,-2.9406,-2.9421,-2.9456,-2.9498,-2.9528,-2.9562,-2.9597,-2.9613,-2.9652,-2.9679,-2.972,-2.9748,-2.9801,-2.9842,-2.9886,-2.991,-2.9925,-2.9928,-2.9934,-2.9927,-2.9916,-2.9924,-2.9886,-2.9926,-2.9926,-2.9926,-2.9926,-2.9926,-2.9416,-2.944,-2.9481,-2.9521,-2.9551,-2.9583,-2.961,-2.9639,-2.9674,-2.9721,-2.9738,-2.9781,-2.982,-2.988,-2.9905,-2.994,-2.9941,-2.9949,-2.9952,-2.9954,-2.9954,-2.9911,-2.9948,-2.9948,-2.9948,-2.9948,-2.9948,0,-2.9438,-2.9467,-2.9503,-2.9552,-2.9583,-2.9595,-2.9634,-2.966,-2.9698,-2.9734,-2.9768,-2.9817,-2.9858,-2.9895,-2.9938,-2.9958,-2.9966,-2.9968,-2.9968,-2.9973,-2.995,-2.9941,-2.9962,-2.9962,-2.9962,-2.9962,-2.9962,-2.9962,-2.9454,-2.9496,-2.9517,-2.9574,-2.9603,-2.9646,-2.9668,-2.9698,-2.9727,-2.9781,-2.9816,-2.984,-2.9877,-2.9923,-2.9961,-2.9971,-2.9986,-2.9987,-2.9999,-2.9976,-2.9975,-2.9973,-2.9965,-2.999,-2.999,-3.002,-3.002,-3.0021]}]]